Pawtucket, RI

5:51 PM EDT on April 23, 2018 (GMT -0400)
North Central State

Weather History for KSFZ - June, 2014

Change the Weather History Date:

Tuesday, June 17, 2014

  Actual Average Record
Temperature  
Mean Temperature 73 °F -  
Max Temperature 82 °F 73 °F 87 °F (2000)
Min Temperature 64 °F 54 °F 48 °F (2003)
Cooling Degree Days 8    
Growing Degree Days 23 (Base 50)    
Moisture  
Dew Point 65 °F    
Average Humidity 70    
Maximum Humidity 88    
Minimum Humidity 61    
Precipitation  
Precipitation 0.02 in - - ()
Sea Level Pressure  
Sea Level Pressure 30.03 in    
Wind  
Wind Speed 5 mph (SSW)    
Max Wind Speed 8 mph    
Max Gust Speed -    
Visibility 9 miles    
Events      
Averages and records for this station are not official NWS values.
T = Trace of Precipitation, MM = Missing Value Source: NWS Daily Summary

Daily Weather History Graph

Daily Weather History Graph

Search for Another Location

Airport or City:

Astronomy

Jun. 17, 2014 Rise Set
Actual Time 5:10 AM EDT 8:23 PM EDT
Civil Twilight 4:35 AM EDT 8:58 PM EDT
Nautical Twilight 3:51 AM EDT 9:42 PM EDT
Astronomical Twilight 2:58 AM EDT 10:35 PM EDT
Moon 11:46 PM EDT (6/17) 10:25 AM EDT (6/17)
Length of Visible Light 16h 22m
Length of Day
15h 13m
Waning Gibbous, 73% of the Moon is Illuminated
Jun 17
Waning Gibbous
Jun 19
Last Quarter
Jun 27
New
Jul 5
First Quarter
Jul 12
Full

Hourly Weather History & Observations

Time (EDT) Temp. Heat Index Dew Point Humidity Pressure Visibility Wind Dir Wind Speed Gust Speed Precip Events Conditions
12:15 AM - - - N/A% 30.10 in 10.0 mi SSW 5.8 mph - N/A   Mostly Cloudy
12:35 AM - - - N/A% 30.10 in 10.0 mi SSW 4.6 mph - N/A   Mostly Cloudy
12:55 AM - - - N/A% 30.09 in 10.0 mi SSW 3.5 mph - N/A   Clear
1:15 AM - - - N/A% 30.10 in 10.0 mi SSW 5.8 mph - N/A   Clear
1:35 AM - - - N/A% 30.10 in 10.0 mi SSW 4.6 mph - N/A   Partly Cloudy
1:55 AM - - - N/A% 30.09 in 10.0 mi South 4.6 mph - N/A   Scattered Clouds
2:15 AM - - - N/A% 30.09 in 10.0 mi SSW 4.6 mph - N/A   Mostly Cloudy
2:35 AM - - - N/A% 30.07 in 10.0 mi SSW 5.8 mph - N/A   Overcast
2:55 AM - - - N/A% 30.07 in 10.0 mi SW 4.6 mph - N/A   Overcast
3:15 AM - - - N/A% 30.07 in 10.0 mi Calm Calm - N/A   Overcast
3:35 AM - - - N/A% 30.07 in 10.0 mi South 4.6 mph - N/A   Overcast
3:55 AM - - - N/A% 30.06 in 10.0 mi SSW 4.6 mph - N/A   Mostly Cloudy
4:15 AM - - - N/A% 30.07 in 10.0 mi SSW 3.5 mph - N/A   Partly Cloudy
4:35 AM - - - N/A% 30.06 in 10.0 mi South 4.6 mph - N/A   Scattered Clouds
4:55 AM - - - N/A% 30.07 in 10.0 mi South 4.6 mph - N/A   Mostly Cloudy
5:15 AM - - - N/A% 30.07 in 10.0 mi South 3.5 mph - N/A   Overcast
5:35 AM - - - N/A% 30.07 in 10.0 mi SSW 3.5 mph - N/A   Mostly Cloudy
5:55 AM - - - N/A% 30.07 in 10.0 mi South 4.6 mph - N/A   Mostly Cloudy
6:15 AM - - - N/A% 30.07 in 10.0 mi South 4.6 mph - N/A   Partly Cloudy
6:35 AM - - - N/A% 30.07 in 10.0 mi South 3.5 mph - N/A   Clear
6:55 AM - - - N/A% 30.08 in 10.0 mi SSW 4.6 mph - N/A   Clear
7:15 AM - - - N/A% 30.08 in 10.0 mi South 4.6 mph - N/A   Clear
7:35 AM - - - N/A% 30.07 in 10.0 mi SSW 5.8 mph - N/A   Clear
7:55 AM - - - N/A% 30.08 in 10.0 mi SSW 5.8 mph - N/A   Clear
8:15 AM - - - N/A% 30.08 in 10.0 mi SSW 8.1 mph - N/A   Clear
9:55 AM 73.4 °F - 62.6 °F 69% 30.09 in 10.0 mi SSW 6.9 mph - 0.02 in   Clear
10:15 AM 73.4 °F - 62.6 °F 69% 30.09 in 10.0 mi Calm Calm - N/A   Clear
10:35 AM 75.2 °F - 62.6 °F 65% 30.09 in 10.0 mi SSW 3.5 mph - N/A   Clear
10:55 AM 75.2 °F - 64.4 °F 69% 30.08 in 10.0 mi Calm Calm - N/A   Clear
11:15 AM 77.0 °F - 64.4 °F 65% 30.08 in 10.0 mi SSW 5.8 mph - N/A   Clear
11:35 AM 77.0 °F - 64.4 °F 65% 30.07 in 10.0 mi South 5.8 mph - N/A   Clear
11:55 AM 77.0 °F - 64.4 °F 65% 30.06 in 10.0 mi SW 4.6 mph - N/A   Partly Cloudy
12:15 PM 78.8 °F - 66.2 °F 65% 30.06 in 10.0 mi SSW 4.6 mph - N/A   Scattered Clouds
12:35 PM 78.8 °F - 66.2 °F 65% 30.05 in 10.0 mi SW 5.8 mph - N/A   Scattered Clouds
12:55 PM 78.8 °F - 66.2 °F 65% 30.05 in 10.0 mi South 3.5 mph - N/A   Scattered Clouds
1:15 PM 78.8 °F - 66.2 °F 65% 30.04 in 10.0 mi SSE 5.8 mph - N/A   Scattered Clouds
1:35 PM 78.8 °F - 66.2 °F 65% 30.04 in 10.0 mi SSW 5.8 mph - N/A   Clear
1:55 PM 80.6 °F 82.7 °F 66.2 °F 61% 30.04 in 10.0 mi South 5.8 mph - N/A   Clear
2:15 PM 78.8 °F - 66.2 °F 65% 30.03 in 10.0 mi South 4.6 mph - N/A   Clear
2:35 PM 80.6 °F 83.2 °F 68.0 °F 65% 30.02 in 10.0 mi SSW 3.5 mph - N/A   Clear
2:55 PM 82.4 °F 85.4 °F 68.0 °F 62% 30.02 in 10.0 mi SSW 5.8 mph - N/A   Clear
3:15 PM 80.6 °F 83.2 °F 68.0 °F 65% 30.02 in 10.0 mi SSW 8.1 mph - N/A   Partly Cloudy
3:35 PM 80.6 °F 83.2 °F 68.0 °F 65% 30.01 in 10.0 mi South 3.5 mph - N/A   Partly Cloudy
3:55 PM 80.6 °F 82.7 °F 66.2 °F 61% 30.00 in 10.0 mi SSW 6.9 mph - N/A   Partly Cloudy
4:15 PM 78.8 °F - 66.2 °F 65% 30.00 in 10.0 mi South 4.6 mph - N/A   Scattered Clouds
4:35 PM 80.6 °F 82.7 °F 66.2 °F 61% 30.00 in 10.0 mi South 5.8 mph - N/A   Scattered Clouds
4:55 PM 80.6 °F 82.7 °F 66.2 °F 61% 29.99 in 10.0 mi South 4.6 mph - N/A   Clear
5:15 PM 80.6 °F 82.7 °F 66.2 °F 61% 29.99 in 10.0 mi South 5.8 mph - N/A   Clear
5:35 PM 80.6 °F 82.7 °F 66.2 °F 61% 29.98 in 10.0 mi South 5.8 mph - N/A   Clear
5:55 PM 80.6 °F 82.7 °F 66.2 °F 61% 29.98 in 10.0 mi SSW 3.5 mph - N/A   Clear
6:15 PM 78.8 °F - 66.2 °F 65% 29.98 in 10.0 mi Calm Calm - N/A   Clear
6:35 PM 78.8 °F - 66.2 °F 65% 29.97 in 10.0 mi SSW 5.8 mph - N/A   Clear
6:55 PM 78.8 °F - 66.2 °F 65% 29.98 in 10.0 mi SSW 5.8 mph - N/A   Clear
7:15 PM 77.0 °F - 66.2 °F 69% 29.97 in 10.0 mi SSW 5.8 mph - N/A   Clear
7:35 PM 75.2 °F - 64.4 °F 69% 29.97 in 10.0 mi South 4.6 mph - N/A   Clear
7:55 PM 75.2 °F - 64.4 °F 69% 29.95 in 10.0 mi South 4.6 mph - N/A   Clear
8:15 PM 73.4 °F - 64.4 °F 73% 29.95 in 10.0 mi South 3.5 mph - N/A   Clear
8:35 PM 73.4 °F - 64.4 °F 73% 29.94 in 10.0 mi South 4.6 mph - N/A   Clear
8:55 PM 71.6 °F - 64.4 °F 78% 29.94 in 10.0 mi South 3.5 mph - N/A   Clear
9:15 PM 69.8 °F - 62.6 °F 78% 29.94 in 4.0 mi SSE 3.5 mph - N/A   Clear
9:35 PM 68.0 °F - 62.6 °F 83% 29.95 in 8.0 mi SSW 3.5 mph - N/A   Clear
9:55 PM 66.2 °F - 62.6 °F 88% 29.95 in 6.0 mi South 3.5 mph - N/A   Clear
10:15 PM 66.2 °F - 62.6 °F 88% 29.94 in 5.0 mi SSE 3.5 mph - N/A   Clear
10:35 PM 66.2 °F - 62.6 °F 88% 29.93 in 5.0 mi South 4.6 mph - N/A   Clear
10:55 PM 66.2 °F - 62.6 °F 88% 29.93 in 4.0 mi South 3.5 mph - N/A   Clear
11:15 PM 66.2 °F - 62.6 °F 88% 29.93 in 3.0 mi South 3.5 mph - N/A   Clear
11:35 PM 64.4 °F - 60.8 °F 88% 29.93 in 3.0 mi South 3.5 mph - N/A   Clear
11:55 PM 64.4 °F - 60.8 °F 88% 29.91 in 3.0 mi SSE 4.6 mph - N/A   Clear